Jonesboro, AR

12:41 AM CST on November 25, 2017 (GMT -0600)
Jonesboro Municipal

Weather History for KJBR - February, 2013

Change the Weather History Date:

Monday, February 25, 2013

  Actual Average Record
Temperature  
Mean Temperature 47 °F 44 °F  
Max Temperature 56 °F 54 °F 82 °F (1918)
Min Temperature 38 °F 34 °F 10 °F (1965)
Degree Days  
Heating Degree Days 18 21  
Month to date heating degree days 571 598  
Since 1 July heating degree days 2562 2894  
Cooling Degree Days 0 0  
Month to date cooling degree days 0 0  
Year to date cooling degree days 0 0  
Moisture  
Dew Point 41 °F    
Average Humidity 74    
Maximum Humidity 100    
Minimum Humidity 47    
Precipitation  
Precipitation 1.32 in 0.13 in 3.00 in (1899)
Month to date precipitation 4.31 3.33  
Year to date precipitation 9.68 6.76  
Snow  
Snow 0.00 in - - ()
Month to date snowfall T  
Snow Depth 0.00 in    
Sea Level Pressure  
Sea Level Pressure 29.57 in    
Wind  
Wind Speed 16 mph (ENE)    
Max Wind Speed 24 mph    
Max Gust Speed 30 mph    
Visibility 7 miles    
Events Rain , Thunderstorm    
T = Trace of Precipitation, MM = Missing Value Source: NWS Daily Summary

Daily Weather History Graph

Daily Weather History Graph

Search for Another Location

Airport or City:

Trip Planner

Search our weather history database for the weather conditions in past years. The results will help you decide how hot, cold, wet, or windy it might be!

Date:

Astronomy

Feb. 25, 2013 Rise Set
Actual Time 6:37 AM CST 5:54 PM CST
Civil Twilight 6:11 AM CST 6:20 PM CST
Nautical Twilight 5:42 AM CST 6:49 PM CST
Astronomical Twilight 5:12 AM CST 7:19 PM CST
Moon 6:05 PM CST 6:09 AM CST
Length of Visible Light 12h 08m
Length of Day
11h 16m
Full, 100% of the Moon is Illuminated
Feb 25
Full
Feb 25
Full
Mar 4
Last Quarter
Mar 11
New
Mar 19
First Quarter

Hourly Weather History & Observations

Time (CST) Temp. Windchill Dew Point Humidity Pressure Visibility Wind Dir Wind Speed Gust Speed Precip Events Conditions
12:53 AM 42.1 °F 34.9 °F 30.9 °F 65% 29.93 in 10.0 mi NE 13.8 mph - N/A   Clear
1:53 AM 42.1 °F 35.2 °F 30.9 °F 65% 29.93 in 10.0 mi NE 12.7 mph - N/A   Clear
2:53 AM 41.0 °F 33.1 °F 30.9 °F 67% 29.91 in 10.0 mi NE 15.0 mph - N/A   Clear
3:53 AM 41.0 °F 32.5 °F 30.9 °F 67% 29.90 in 10.0 mi NE 17.3 mph 23.0 mph N/A   Clear
4:53 AM 41.0 °F 33.1 °F 30.0 °F 65% 29.89 in 10.0 mi NE 15.0 mph 23.0 mph N/A   Clear
5:53 AM 39.0 °F 30.6 °F 30.0 °F 70% 29.89 in 10.0 mi NE 15.0 mph - N/A   Clear
6:53 AM 37.9 °F 28.9 °F 30.0 °F 73% 29.86 in 10.0 mi NE 16.1 mph - N/A   Clear
7:53 AM 39.9 °F 31.4 °F 30.0 °F 68% 29.88 in 10.0 mi ENE 16.1 mph - N/A   Clear
8:53 AM 44.1 °F 35.9 °F 32.0 °F 63% 29.87 in 10.0 mi ENE 19.6 mph - N/A   Partly Cloudy
9:53 AM 45.0 °F 38.2 °F 32.0 °F 60% 29.86 in 10.0 mi ENE 15.0 mph - N/A   Scattered Clouds
10:53 AM 48.9 °F - 35.1 °F 59% 29.84 in 10.0 mi ENE 15.0 mph - N/A   Clear
11:53 AM 52.0 °F - 34.0 °F 50% 29.79 in 10.0 mi ENE 18.4 mph - N/A   Clear
12:53 PM 55.9 °F - 37.0 °F 49% 29.71 in 10.0 mi ENE 21.9 mph 28.8 mph N/A   Scattered Clouds
1:53 PM 54.0 °F - 36.0 °F 51% 29.67 in 10.0 mi ENE 17.3 mph - N/A   Overcast
2:53 PM 55.0 °F - 35.1 °F 47% 29.61 in 10.0 mi ENE 19.6 mph - N/A   Overcast
3:53 PM 54.0 °F - 37.9 °F 55% 29.55 in 10.0 mi ENE 20.7 mph - N/A   Overcast
4:53 PM 54.0 °F - 39.0 °F 57% 29.52 in 10.0 mi ENE 16.1 mph - N/A   Overcast
5:53 PM 54.0 °F - 46.0 °F 75% 29.50 in 10.0 mi East 17.3 mph - 0.00 in   Overcast
6:32 PM 53.6 °F - 46.4 °F 77% 29.51 in 10.0 mi East 11.5 mph 20.7 mph 0.01 in Rain , Thunderstorm Light Rain
6:53 PM 52.0 °F - 46.9 °F 83% 29.52 in 3.0 mi East 9.2 mph - 0.17 in Rain , Thunderstorm Heavy Thunderstorms and Rain
7:01 PM 51.8 °F - 48.2 °F 88% 29.52 in 5.0 mi East 10.4 mph - 0.02 in Rain , Thunderstorm Light Thunderstorms and Rain
7:22 PM 51.8 °F - 48.2 °F 88% 29.50 in 5.0 mi ENE 10.4 mph - 0.10 in Rain Heavy Rain
7:53 PM 50.0 °F - 48.0 °F 93% 29.47 in 6.0 mi NE 13.8 mph - 0.19 in Rain Rain
8:53 PM 48.9 °F - 48.0 °F 97% 29.42 in 3.0 mi NE 17.3 mph - 0.18 in Rain Heavy Rain
8:57 PM 48.2 °F - 48.2 °F 100% 29.41 in 2.5 mi NE 16.1 mph - 0.03 in Rain Heavy Rain
9:09 PM 48.2 °F - 48.2 °F 100% 29.40 in 3.0 mi NE 18.4 mph 26.5 mph 0.10 in Rain Rain
9:48 PM 48.2 °F - 46.4 °F 93% 29.37 in 3.0 mi NE 21.9 mph 28.8 mph 0.30 in Rain Rain
9:53 PM 48.0 °F - 46.9 °F 96% 29.36 in 4.0 mi NE 20.7 mph - 0.32 in Rain Rain
10:07 PM 48.2 °F - 46.4 °F 93% 29.36 in 5.0 mi NE 20.7 mph 28.8 mph 0.04 in Rain Rain
10:24 PM 46.4 °F 38.7 °F 46.4 °F 100% 29.35 in 2.5 mi NE 20.7 mph 26.5 mph 0.18 in Rain Heavy Rain
10:31 PM 46.4 °F 39.8 °F 46.4 °F 100% 29.36 in 3.0 mi NE 16.1 mph 26.5 mph 0.21 in Rain Rain
10:42 PM 48.2 °F - 46.4 °F 93% 29.36 in 2.5 mi ENE 17.3 mph - 0.30 in Rain Heavy Rain
10:48 PM 48.2 °F - 46.4 °F 93% 29.35 in 3.0 mi NE 16.1 mph - 0.32 in Rain Rain
10:53 PM 48.0 °F - 46.9 °F 96% 29.34 in 3.0 mi NE 17.3 mph - 0.33 in Rain Rain
11:03 PM 48.2 °F - 46.4 °F 93% 29.34 in 2.5 mi NE 15.0 mph - 0.02 in Rain Light Rain
11:10 PM 48.2 °F - 48.2 °F 100% 29.35 in 2.0 mi ENE 15.0 mph - 0.04 in Rain Rain
11:13 PM 48.2 °F - 48.2 °F 100% 29.35 in 1.8 mi ENE 12.7 mph - 0.05 in Rain Rain
11:26 PM 48.2 °F - 48.2 °F 100% 29.33 in 3.0 mi NNE 10.4 mph - 0.09 in Rain Rain
11:53 PM 50.0 °F - 50.0 °F 100% 29.30 in 9.0 mi ENE 9.2 mph - 0.13 in Rain Light Rain